Clinton, OK

4:05 PM CST on December 15, 2017 (GMT -0600)
Clinton Municipal

Weather History for KCLK - March, 2014

Change the Weather History Date:

Wednesday, March 12, 2014

  Actual Average (KCSM) Record (KCSM)
Temperature  
Mean Temperature 45 °F -  
Max Temperature 57 °F 56 °F 84 °F (2005)
Min Temperature 33 °F 35 °F 14 °F (1998)
Degree Days  
Heating Degree Days 20    
Moisture  
Dew Point 19 °F    
Average Humidity 44    
Maximum Humidity 81    
Minimum Humidity 15    
Precipitation  
Precipitation 0.00 in - - ()
Sea Level Pressure  
Sea Level Pressure 30.26 in    
Wind  
Wind Speed 20 mph (NNW)    
Max Wind Speed 38 mph    
Max Gust Speed 51 mph    
Visibility 10 miles    
Events      
Averages and records for this station are not official NWS values.
T = Trace of Precipitation, MM = Missing Value Source: NWS Daily Summary

Daily Weather History Graph

Daily Weather History Graph

Search for Another Location

Airport or City:

Trip Planner

Search our weather history database for the weather conditions in past years. The results will help you decide how hot, cold, wet, or windy it might be!

Date:

Astronomy

Mar. 12, 2014 Rise Set
Actual Time 7:50 AM CDT 7:40 PM CDT
Civil Twilight 7:25 AM CDT 8:06 PM CDT
Nautical Twilight 6:55 AM CDT 8:35 PM CDT
Astronomical Twilight 6:26 AM CDT 9:05 PM CDT
Moon 4:18 PM CDT (3/12) 5:16 AM CDT (3/12)
Length of Visible Light 12h 40m
Length of Day
11h 50m
Waxing Gibbous, 85% of the Moon is Illuminated
Mar 12
Waxing Gibbous
Mar 16
Full
Mar 23
Last Quarter
Mar 30
New
Apr 7
First Quarter

Hourly Weather History & Observations

Time (CDT) Temp. Windchill Dew Point Humidity Pressure Visibility Wind Dir Wind Speed Gust Speed Precip Events Conditions
12:15 AM 42.8 °F 31.4 °F 28.4 °F 57% 30.07 in 10.0 mi North 35.7 mph 49.5 mph N/A   Mostly Cloudy
12:35 AM 41.0 °F 28.6 °F 28.4 °F 61% 30.08 in 10.0 mi North 38.0 mph 50.6 mph N/A   Scattered Clouds
12:55 AM 41.0 °F 30.5 °F 28.4 °F 61% 30.10 in 10.0 mi North 26.5 mph 41.4 mph N/A   Scattered Clouds
1:15 AM 41.0 °F 29.5 °F 28.4 °F 61% 30.12 in 10.0 mi North 32.2 mph 43.7 mph N/A   Scattered Clouds
1:35 AM 41.0 °F 29.5 °F 28.4 °F 61% 30.14 in 10.0 mi North 32.2 mph 41.4 mph N/A   Mostly Cloudy
1:55 AM 41.0 °F 29.8 °F 28.4 °F 61% 30.15 in 10.0 mi North 29.9 mph 43.7 mph N/A   Overcast
2:15 AM 41.0 °F 29.1 °F 28.4 °F 61% 30.15 in 10.0 mi North 34.5 mph 43.7 mph N/A   Overcast
2:35 AM 39.2 °F 27.4 °F 26.6 °F 61% 30.17 in 10.0 mi North 29.9 mph 46.0 mph N/A   Scattered Clouds
2:55 AM 37.4 °F 26.4 °F 24.8 °F 60% 30.18 in 10.0 mi North 23.0 mph 33.4 mph N/A   Clear
3:15 AM 37.4 °F 26.9 °F 24.8 °F 60% 30.19 in 10.0 mi North 20.7 mph 29.9 mph N/A   Clear
3:35 AM 37.4 °F 27.8 °F 24.8 °F 60% 30.19 in 10.0 mi North 17.3 mph 23.0 mph N/A   Clear
3:55 AM 35.6 °F 25.2 °F 24.8 °F 65% 30.19 in 10.0 mi North 18.4 mph 24.2 mph N/A   Clear
4:15 AM 35.6 °F 27.1 °F 26.6 °F 70% 30.20 in 10.0 mi North 12.7 mph - N/A   Clear
4:35 AM 35.6 °F 26.6 °F 26.6 °F 70% 30.20 in 10.0 mi North 13.8 mph - N/A   Clear
4:55 AM 35.6 °F 26.2 °F 26.6 °F 70% 30.21 in 10.0 mi North 15.0 mph 20.7 mph N/A   Clear
5:15 AM 35.6 °F 26.6 °F 26.6 °F 70% 30.22 in 10.0 mi North 13.8 mph - N/A   Clear
5:35 AM 35.6 °F 28.0 °F 26.6 °F 70% 30.23 in 10.0 mi North 10.4 mph - N/A   Clear
5:55 AM 33.8 °F 26.4 °F 26.6 °F 75% 30.25 in 10.0 mi NNW 9.2 mph - N/A   Clear
6:15 AM 33.8 °F 24.8 °F 28.4 °F 81% 30.25 in 10.0 mi North 12.7 mph - N/A   Clear
6:35 AM 33.8 °F 24.8 °F 28.4 °F 81% 30.25 in 10.0 mi NNW 12.7 mph 17.3 mph N/A   Clear
6:55 AM 33.8 °F 23.5 °F 28.4 °F 81% 30.26 in 10.0 mi NNW 16.1 mph - N/A   Clear
7:15 AM 33.8 °F 23.9 °F 28.4 °F 81% 30.27 in 10.0 mi North 15.0 mph - N/A   Clear
7:35 AM 33.8 °F 22.8 °F 28.4 °F 81% 30.26 in 10.0 mi North 18.4 mph - N/A   Clear
7:55 AM 33.8 °F 22.5 °F 28.4 °F 81% 30.27 in 10.0 mi North 19.6 mph 23.0 mph N/A   Clear
8:15 AM 33.8 °F 23.2 °F 28.4 °F 81% 30.28 in 10.0 mi North 17.3 mph - N/A   Clear
8:35 AM 33.8 °F 23.2 °F 28.4 °F 81% 30.29 in 10.0 mi North 17.3 mph - N/A   Clear
8:55 AM 35.6 °F 25.5 °F 28.4 °F 75% 30.31 in 10.0 mi North 17.3 mph - N/A   Clear
9:15 AM 35.6 °F 25.5 °F 28.4 °F 75% 30.32 in 10.0 mi North 17.3 mph - N/A   Clear
9:35 AM 37.4 °F 28.5 °F 28.4 °F 70% 30.33 in 10.0 mi North 15.0 mph 25.3 mph N/A   Clear
9:55 AM 41.0 °F 32.2 °F 28.4 °F 61% 30.34 in 10.0 mi North 18.4 mph 27.6 mph N/A   Clear
10:15 AM 41.0 °F 30.5 °F 28.4 °F 61% 30.34 in 10.0 mi North 26.5 mph 33.4 mph N/A   Clear
10:35 AM 42.8 °F 34.5 °F 28.4 °F 57% 30.35 in 10.0 mi North 18.4 mph 24.2 mph N/A   Clear
10:55 AM 44.6 °F 36.1 °F 26.6 °F 49% 30.35 in 10.0 mi North 21.9 mph 26.5 mph N/A   Clear
11:15 AM 44.6 °F 37.4 °F 23.0 °F 43% 30.36 in 10.0 mi NNW 16.1 mph 24.2 mph N/A   Clear
11:35 AM 46.4 °F 39.2 °F 23.0 °F 40% 30.36 in 10.0 mi NNW 18.4 mph 23.0 mph N/A   Clear
11:55 AM 48.2 °F - 21.2 °F 34% 30.36 in 10.0 mi North 19.6 mph 23.0 mph N/A   Clear
12:15 PM 50.0 °F - 17.6 °F 28% 30.36 in 10.0 mi North 18.4 mph 27.6 mph N/A   Clear
12:35 PM 50.0 °F - 15.8 °F 26% 30.36 in 10.0 mi North 16.1 mph 23.0 mph N/A   Clear
12:55 PM 51.8 °F - 14.0 °F 22% 30.35 in 10.0 mi North 17.3 mph 23.0 mph N/A   Clear
1:15 PM 51.8 °F - 12.2 °F 21% 30.35 in 10.0 mi North 15.0 mph 23.0 mph N/A   Clear
1:35 PM 51.8 °F - 10.4 °F 19% 30.34 in 10.0 mi NNW 13.8 mph 23.0 mph N/A   Clear
1:55 PM 53.6 °F - 10.4 °F 18% 30.34 in 10.0 mi NNW 12.7 mph 24.2 mph N/A   Clear
2:15 PM 53.6 °F - 10.4 °F 18% 30.32 in 10.0 mi NNW 15.0 mph 21.9 mph N/A   Clear
2:35 PM 53.6 °F - 8.6 °F 16% 30.31 in 10.0 mi North 16.1 mph - N/A   Clear
2:55 PM 53.6 °F - 10.4 °F 18% 30.30 in 10.0 mi North 13.8 mph 20.7 mph N/A   Clear
3:15 PM 55.4 °F - 8.6 °F 15% 30.29 in 10.0 mi NNW 16.1 mph 24.2 mph N/A   Clear
3:35 PM 55.4 °F - 8.6 °F 15% 30.28 in 10.0 mi NNW 13.8 mph 20.7 mph N/A   Clear
3:55 PM 55.4 °F - 8.6 °F 15% 30.27 in 10.0 mi North 15.0 mph 20.7 mph N/A   Clear
4:15 PM 55.4 °F - 8.6 °F 15% 30.27 in 10.0 mi NNW 12.7 mph 21.9 mph N/A   Clear
4:35 PM 55.4 °F - 10.4 °F 17% 30.27 in 10.0 mi NNW 11.5 mph 19.6 mph N/A   Clear
4:55 PM 57.2 °F - 10.4 °F 16% 30.26 in 10.0 mi NW 15.0 mph 19.6 mph N/A   Clear
5:15 PM 57.2 °F - 10.4 °F 16% 30.25 in 10.0 mi NNW 13.8 mph 19.6 mph N/A   Clear
5:35 PM 55.4 °F - 10.4 °F 17% 30.25 in 10.0 mi NNW 8.1 mph 18.4 mph N/A   Clear
5:55 PM 55.4 °F - 10.4 °F 17% 30.25 in 10.0 mi NW 9.2 mph - N/A   Clear
6:15 PM 55.4 °F - 10.4 °F 17% 30.25 in 10.0 mi WNW 11.5 mph - N/A   Clear
6:35 PM 55.4 °F - 10.4 °F 17% 30.24 in 10.0 mi NNW 9.2 mph - N/A   Clear
6:55 PM 55.4 °F - 10.4 °F 17% 30.24 in 10.0 mi NNW 5.8 mph - N/A   Clear
7:15 PM 53.6 °F - 12.2 °F 19% 30.25 in 10.0 mi NNW 5.8 mph - N/A   Clear
7:35 PM 51.8 °F - 14.0 °F 22% 30.25 in 10.0 mi NW 5.8 mph - N/A   Clear
7:55 PM 48.2 °F - 14.0 °F 25% 30.25 in 10.0 mi Calm Calm - N/A   Clear
8:15 PM 50.0 °F - 12.2 °F 22% 30.25 in 10.0 mi WNW 3.5 mph - N/A   Clear
8:35 PM 50.0 °F - 12.2 °F 22% 30.26 in 10.0 mi Calm Calm - N/A   Clear
8:55 PM 48.2 °F - 12.2 °F 24% 30.26 in 10.0 mi Calm Calm - N/A   Clear
9:15 PM 46.4 °F - 12.2 °F 25% 30.26 in 10.0 mi Calm Calm - N/A   Clear
9:35 PM 46.4 °F - 12.2 °F 25% 30.26 in 10.0 mi Calm Calm - N/A   Clear
9:55 PM 44.6 °F - 12.2 °F 27% 30.27 in 10.0 mi Calm Calm - N/A   Clear
10:15 PM 46.4 °F 45.2 °F 12.2 °F 25% 30.27 in 10.0 mi West 3.5 mph - N/A   Clear
10:35 PM 42.8 °F 41.1 °F 14.0 °F 31% 30.27 in 10.0 mi West 3.5 mph - N/A   Clear
10:55 PM 42.8 °F - 14.0 °F 31% 30.27 in 10.0 mi Calm Calm - N/A   Clear
11:15 PM 42.8 °F - 14.0 °F 31% 30.27 in 10.0 mi Calm Calm - N/A   Clear
11:35 PM 39.2 °F - 15.8 °F 39% 30.27 in 10.0 mi Calm Calm - N/A   Clear
11:55 PM 37.4 °F 34.9 °F 17.6 °F 45% 30.27 in 10.0 mi West 3.5 mph - N/A   Clear